KC1FX Weather Reports


time (UTC)temp
C
wind
direction
speed
KPH
gust
KPH
rain 1hr
cm
rain 24hr
cm
rain mn
cm
humidity
%
barometer
mb
20260509130003 11 186 6.4 11.3 0.00 0.03 0.00 48 1011.8
20260509120003 3 0 0.0 0.0 0.00 0.03 0.00 86 1012.1
20260509110003 0 90 0.0 4.8 0.00 0.03 0.00 99 1012.0
20260509100005 -1 90 3.2 4.8 0.00 0.03 0.00 99 1011.9
20260509090003 -1 90 0.0 6.4 0.00 0.03 0.00 99 1011.1
20260509080003 0 90 3.2 4.8 0.00 0.03 0.00 99 1011.4
20260509070024 0 90 6.4 6.4 0.00 0.03 0.00 97 1011.4
20260509060024 0 90 4.8 6.4 0.00 0.03 0.00 96 1011.2
20260509050003 1 90 4.8 4.8 0.00 0.03 0.00 94 1011.0
20260509040004 1 90 6.4 6.4 0.00 0.03 0.00 92 1010.8
20260509030002 2 90 8.0 9.7 0.00 0.03 0.03 85 1010.3
20260509020003 2 90 9.7 9.7 0.00 0.03 0.03 84 1009.9
20260509010003 3 302 8.0 8.0 0.00 0.03 0.03 79 1009.3
20260509000003 5 310 0.0 4.8 0.00 0.03 0.03 63 1008.6
20260508230002 8 312 3.2 6.4 0.00 0.03 0.03 55 1008.3
20260508220003 10 360 6.4 8.0 0.00 0.03 0.03 50 1007.8
20260508210003 10 218 6.4 8.0 0.00 0.03 0.03 48 1007.6
20260508200003 10 327 6.4 11.3 0.00 0.03 0.03 50 1007.6
20260508190003 8 330 4.8 12.9 0.00 0.03 0.03 54 1007.6
20260508180003 9 200 8.0 9.7 0.00 0.03 0.03 53 1007.3
20260508170003 8 269 4.8 14.5 0.00 0.03 0.03 68 1007.3
20260508160004 5 256 6.4 6.4 0.03 0.03 0.03 91 1007.8
20260508150003 7 194 4.8 6.4 0.00 0.00 0.00 70 1007.5
20260508140003 6 180 4.8 6.4 0.00 0.00 0.00 73 1007.5